QPF
0.00 0.00 0.01 0.01 0.01 0.05 0.14 0.07 0.01 0.00 0.00 0.00 0.00 0.00 0.00 0.00 0.00 0.00 0.00 0.00 0.00 0.00 0.00 0.00 0.00 0.00 0.00 0.00 0.00 0.00 0.00 0.00 0.00 0.00 0.00 0.00 0.00 0.00 0.00 0.00 0.00 0.00 0.00 0.00 0.00 0.00 0.00 0.00 0.00
0.00 0.00 0.00 0.01 0.01 0.07 0.20 0.09 0.02 0.01 0.00 0.00 0.00 0.00 0.00 0.00 0.00 0.00 0.00 0.00 0.00 0.00 0.00 0.00 0.00 0.00 0.00 0.00 0.00 0.00 0.00 0.00 0.00 0.00 0.00 0.00 0.00 0.00 0.00 0.00 0.00 0.00 0.00 0.00 0.00 0.00 0.00 0.00 0.00
0.00 0.00 0.00 0.00 0.01 0.10 0.29 0.11 0.04 0.02 0.01 0.01 0.00 0.00 0.00 0.00 0.00 0.00 0.00 0.00 0.00 0.00 0.00 0.00 0.00 0.00 0.00 0.00 0.00 0.00 0.00 0.00 0.00 0.00 0.00 0.00 0.00 0.00 0.00 0.00 0.00 0.00 0.00 0.00 0.00 0.00 0.00 0.00 0.00
0.00 0.00 0.00 0.00 0.00 0.04 0.13 0.13 0.09 0.06 0.03 0.02 0.01 0.00 0.00 0.00 0.00 0.00 0.00 0.00 0.00 0.00 0.00 0.00 0.00 0.00 0.00 0.00 0.00 0.00 0.00 0.00 0.00 0.00 0.00 0.00 0.00 0.00 0.00 0.00 0.00 0.00 0.00 0.00 0.00 0.00 0.00 0.00 0.00
0.00 0.00 0.00 0.00 0.00 0.01 0.03 0.06 0.11 0.11 0.04 0.01 0.00 0.00 0.00 0.00 0.00 0.00 0.00 0.00 0.00 0.00 0.00 0.00 0.00 0.00 0.00 0.00 0.00 0.00 0.00 0.00 0.00 0.00 0.00 0.00 0.00 0.00 0.00 0.00 0.00 0.00 0.00 0.00 0.00 0.00 0.00 0.00 0.00
0.00 0.00 0.00 0.00 0.00 0.01 0.02 0.05 0.11 0.13 0.07 0.02 0.00 0.00 0.00 0.00 0.00 0.00 0.00 0.00 0.00 0.00 0.00 0.00 0.00 0.00 0.00 0.00 0.00 0.00 0.00 0.00 0.00 0.00 0.00 0.00 0.00 0.00 0.00 0.00 0.00 0.00 0.00 0.00 0.00 0.00 0.00 0.00 0.00
0.00 0.00 0.00 0.00 0.00 0.00 0.02 0.04 0.07 0.09 0.07 0.03 0.01 0.00 0.00 0.00 0.00 0.00 0.00 0.00 0.00 0.00 0.00 0.00 0.00 0.00 0.00 0.00 0.00 0.00 0.00 0.00 0.00 0.00 0.00 0.00 0.00 0.00 0.00 0.00 0.00 0.00 0.00 0.00 0.00 0.00 0.00 0.00 0.00
0.00 0.00 0.00 0.00 0.00 0.00 0.01 0.04 0.06 0.06 0.06 0.02 0.01 0.01 0.00 0.00 0.00 0.00 0.00 0.00 0.00 0.00 0.00 0.00 0.00 0.00 0.00 0.00 0.00 0.00 0.00 0.00 0.00 0.00 0.00 0.00 0.00 0.00 0.00 0.00 0.00 0.01 0.01 0.01 0.00 0.00 0.01 0.00 0.00
0.00 0.00 0.00 0.00 0.00 0.00 0.00 0.01 0.03 0.03 0.02 0.02 0.04 0.03 0.02 0.00 0.00 0.00 0.00 0.00 0.00 0.00 0.00 0.00 0.00 0.00 0.00 0.00 0.00 0.00 0.00 0.00 0.00 0.00 0.00 0.00 0.00 0.00 0.00 0.01 0.04 0.07 0.08 0.10 0.08 0.06 0.05 0.03 0.01
0.00 0.00 0.00 0.00 0.00 0.00 0.00 0.00 0.00 0.00 0.01 0.04 0.09 0.09 0.07 0.02 0.00 0.00 0.00 0.00 0.00 0.00 0.00 0.00 0.00 0.00 0.00 0.00 0.00 0.00 0.00 0.00 0.00 0.00 0.00 0.00 0.00 0.01 0.01 0.05 0.11 0.16 0.19 0.19 0.19 0.20 0.14 0.07 0.02
0.00 0.00 0.00 0.00 0.00 0.00 0.00 0.00 0.00 0.00 0.00 0.01 0.03 0.07 0.06 0.01 0.00 0.00 0.00 0.00 0.01 0.01 0.01 0.01 0.00 0.00 0.00 0.00 0.00 0.00 0.00 0.00 0.00 0.00 0.01 0.04 0.07 0.08 0.08 0.11 0.14 0.17 0.20 0.16 0.20 0.23 0.15 0.10 0.06
0.00 0.00 0.00 0.00 0.00 0.00 0.00 0.00 0.00 0.00 0.00 0.00 0.00 0.02 0.08 0.05 0.01 0.00 0.00 0.01 0.02 0.03 0.03 0.03 0.03 0.02 0.01 0.01 0.01 0.01 0.01 0.02 0.03 0.03 0.05 0.13 0.23 0.29 0.25 0.20 0.13 0.09 0.09 0.13 0.13 0.12 0.14 0.14 0.10
0.00 0.00 0.00 0.00 0.00 0.00 0.00 0.00 0.00 0.00 0.00 0.00 0.00 0.01 0.08 0.10 0.03 0.01 0.01 0.03 0.06 0.11 0.16 0.15 0.13 0.07 0.06 0.04 0.03 0.04 0.05 0.07 0.09 0.10 0.12 0.21 0.29 0.35 0.35 0.21 0.13 0.09 0.08 0.10 0.10 0.09 0.10 0.13 0.11
0.00 0.00 0.00 0.00 0.00 0.00 0.00 0.00 0.00 0.00 0.00 0.00 0.00 0.00 0.03 0.06 0.05 0.05 0.06 0.11 0.23 0.33 0.34 0.25 0.20 0.17 0.13 0.09 0.09 0.10 0.11 0.11 0.11 0.12 0.13 0.20 0.30 0.31 0.23 0.17 0.13 0.10 0.08 0.08 0.08 0.09 0.12 0.15 0.17
0.00 0.00 0.00 0.00 0.00 0.00 0.00 0.00 0.00 0.00 0.00 0.00 0.00 0.00 0.01 0.02 0.05 0.09 0.15 0.29 0.51 0.64 0.63 0.61 0.61 0.50 0.36 0.22 0.17 0.16 0.15 0.13 0.11 0.09 0.10 0.15 0.20 0.18 0.15 0.11 0.09 0.08 0.07 0.07 0.07 0.08 0.12 0.14 0.14
0.00 0.00 0.00 0.00 0.00 0.00 0.00 0.00 0.00 0.00 0.00 0.00 0.00 0.02 0.03 0.05 0.11 0.17 0.25 0.43 0.75 1.07 1.34 1.46 1.29 1.02 0.75 0.45 0.26 0.17 0.13 0.11 0.08 0.06 0.04 0.04 0.05 0.05 0.06 0.06 0.05 0.04 0.03 0.04 0.05 0.07 0.09 0.08 0.06
0.00 0.00 0.00 0.00 0.00 0.00 0.00 0.00 0.00 0.00 0.00 0.00 0.00 0.01 0.03 0.07 0.16 0.26 0.38 0.59 1.00 1.51 2.10 2.23 1.76 1.36 0.99 0.63 0.36 0.19 0.10 0.06 0.04 0.03 0.02 0.01 0.01 0.01 0.01 0.01 0.01 0.01 0.01 0.01 0.02 0.02 0.02 0.03 0.03
0.00 0.00 0.00 0.00 0.00 0.00 0.00 0.00 0.00 0.00 0.00 0.00 0.01 0.01 0.03 0.08 0.18 0.30 0.49 0.84 1.47 2.23 2.80 2.73 2.12 1.56 1.07 0.71 0.46 0.23 0.11 0.04 0.03 0.02 0.01 0.00 0.00 0.00 0.00 0.00 0.00 0.00 0.00 0.00 0.01 0.01 0.01 0.01 0.01
0.00 0.00 0.00 0.00 0.00 0.00 0.00 0.00 0.00 0.00 0.00 0.01 0.01 0.01 0.03 0.09 0.21 0.42 0.80 1.45 2.32 3.04 3.13 2.52 1.92 1.51 1.10 0.75 0.39 0.15 0.07 0.03 0.02 0.01 0.00 0.00 0.00 0.00 0.00 0.00 0.00 0.00 0.00 0.00 0.00 0.00 0.00 0.00 0.00
0.00 0.00 0.00 0.00 0.00 0.00 0.00 0.00 0.00 0.00 0.00 0.00 0.01 0.03 0.07 0.16 0.35 0.60 1.18 1.86 2.24 2.32 1.96 1.49 1.20 1.01 0.72 0.45 0.21 0.11 0.06 0.03 0.01 0.01 0.00 0.00 0.00 0.00 0.00 0.00 0.00 0.00 0.00 0.00 0.00 0.00 0.00 0.00 0.00
0.00 0.00 0.00 0.00 0.00 0.00 0.00 0.00 0.00 0.00 0.01 0.01 0.03 0.06 0.16 0.33 0.49 0.64 1.03 1.37 1.21 0.94 0.82 0.76 0.68 0.44 0.28 0.22 0.11 0.05 0.03 0.02 0.02 0.01 0.01 0.00 0.00 0.00 0.00 0.00 0.00 0.00 0.00 0.00 0.00 0.00 0.00 0.00 0.00
0.00 0.00 0.00 0.00 0.00 0.00 0.00 0.01 0.02 0.03 0.04 0.04 0.06 0.08 0.17 0.25 0.24 0.28 0.41 0.52 0.55 0.53 0.47 0.56 0.53 0.29 0.21 0.15 0.08 0.06 0.06 0.05 0.04 0.02 0.01 0.01 0.01 0.00 0.00 0.00 0.00 0.00 0.00 0.00 0.00 0.00 0.00 0.00 0.00
0.00 0.00 0.00 0.00 0.00 0.00 0.00 0.01 0.04 0.07 0.09 0.10 0.11 0.11 0.09 0.06 0.04 0.06 0.10 0.13 0.16 0.18 0.21 0.35 0.41 0.32 0.25 0.20 0.14 0.12 0.11 0.09 0.08 0.06 0.04 0.03 0.02 0.01 0.00 0.00 0.00 0.00 0.00 0.00 0.00 0.00 0.00 0.00 0.00
0.00 0.00 0.00 0.00 0.01 0.03 0.03 0.03 0.09 0.22 0.35 0.35 0.24 0.13 0.06 0.02 0.01 0.01 0.02 0.03 0.05 0.08 0.11 0.20 0.28 0.29 0.30 0.29 0.23 0.17 0.12 0.11 0.10 0.08 0.08 0.05 0.02 0.01 0.01 0.00 0.00 0.01 0.01 0.00 0.00 0.00 0.00 0.00 0.00
0.00 0.00 0.00 0.00 0.01 0.03 0.03 0.03 0.12 0.34 0.44 0.30 0.13 0.04 0.02 0.01 0.00 0.00 0.01 0.01 0.02 0.03 0.04 0.07 0.08 0.10 0.14 0.18 0.20 0.18 0.14 0.12 0.11 0.09 0.07 0.06 0.05 0.04 0.03 0.02 0.01 0.02 0.01 0.00 0.00 0.00 0.00 0.00 0.00
0.01 0.00 0.00 0.00 0.00 0.01 0.02 0.08 0.28 0.46 0.33 0.13 0.04 0.01 0.01 0.00 0.00 0.00 0.00 0.00 0.00 0.01 0.01 0.01 0.01 0.02 0.03 0.04 0.05 0.07 0.08 0.08 0.08 0.08 0.08 0.11 0.15 0.16 0.14 0.08 0.04 0.03 0.01 0.01 0.00 0.00 0.00 0.00 0.00
0.01 0.00 0.00 0.00 0.00 0.01 0.04 0.13 0.21 0.25 0.18 0.08 0.03 0.01 0.00 0.00 0.00 0.00 0.00 0.00 0.00 0.00 0.00 0.00 0.00 0.00 0.00 0.01 0.01 0.01 0.02 0.02 0.03 0.04 0.05 0.08 0.14 0.19 0.17 0.13 0.09 0.05 0.03 0.02 0.01 0.00 0.00 0.00 0.00
0.01 0.01 0.01 0.01 0.01 0.01 0.03 0.14 0.18 0.14 0.11 0.07 0.04 0.02 0.00 0.00 0.00 0.00 0.00 0.00 0.00 0.00 0.00 0.00 0.00 0.00 0.00 0.00 0.00 0.00 0.00 0.00 0.01 0.01 0.02 0.04 0.06 0.09 0.11 0.10 0.08 0.06 0.04 0.04 0.03 0.01 0.00 0.00 0.00
0.02 0.01 0.01 0.01 0.01 0.02 0.03 0.09 0.11 0.10 0.08 0.06 0.04 0.01 0.00 0.00 0.00 0.00 0.00 0.00 0.00 0.00 0.00 0.00 0.00 0.00 0.00 0.00 0.00 0.00 0.00 0.00 0.00 0.00 0.00 0.01 0.01 0.03 0.04 0.05 0.05 0.05 0.04 0.04 0.03 0.02 0.01 0.01 0.00
0.02 0.02 0.02 0.02 0.02 0.02 0.04 0.07 0.05 0.05 0.04 0.03 0.01 0.00 0.00 0.00 0.00 0.00 0.00 0.00 0.00 0.00 0.00 0.00 0.00 0.00 0.00 0.00 0.00 0.00 0.00 0.00 0.00 0.00 0.00 0.00 0.00 0.00 0.00 0.01 0.01 0.02 0.03 0.04 0.04 0.04 0.02 0.02 0.01
MSLP
1009.77 1010.86 1012.05 1013.14 1013.95 1014.29 1014.12 1013.43 1012.36 1011.10 1009.87 1008.88 1008.26 1008.06 1008.23 1008.65 1009.15 1009.58 1009.83 1009.88 1009.75 1009.54 1009.36 1009.29 1009.41 1009.70 1010.12 1010.59 1011.02 1011.37 1011.61 1011.77 1011.88 1012.02 1012.21 1012.47 1012.79 1013.11 1013.40 1013.60 1013.70 1013.72 1013.69 1013.67 1013.70 1013.80 1013.99 1014.24 1014.50
1010.11 1011.32 1012.56 1013.63 1014.33 1014.54 1014.19 1013.35 1012.14 1010.77 1009.47 1008.43 1007.77 1007.52 1007.63 1007.99 1008.44 1008.85 1009.11 1009.21 1009.17 1009.08 1009.02 1009.07 1009.28 1009.63 1010.06 1010.53 1010.95 1011.29 1011.54 1011.72 1011.87 1012.06 1012.29 1012.58 1012.90 1013.21 1013.46 1013.62 1013.68 1013.67 1013.63 1013.60 1013.63 1013.73 1013.90 1014.12 1014.35
1010.51 1011.79 1013.03 1014.05 1014.65 1014.74 1014.30 1013.37 1012.12 1010.74 1009.45 1008.41 1007.72 1007.43 1007.46 1007.71 1008.06 1008.38 1008.60 1008.69 1008.71 1008.70 1008.74 1008.89 1009.17 1009.56 1010.01 1010.46 1010.86 1011.19 1011.44 1011.64 1011.83 1012.05 1012.31 1012.60 1012.91 1013.20 1013.41 1013.54 1013.58 1013.57 1013.54 1013.52 1013.56 1013.67 1013.83 1014.03 1014.23
1010.91 1012.20 1013.40 1014.33 1014.84 1014.86 1014.36 1013.44 1012.24 1010.93 1009.71 1008.72 1008.05 1007.70 1007.63 1007.75 1007.95 1008.14 1008.26 1008.32 1008.35 1008.40 1008.51 1008.73 1009.07 1009.48 1009.93 1010.37 1010.75 1011.06 1011.30 1011.51 1011.73 1011.96 1012.24 1012.54 1012.83 1013.09 1013.27 1013.39 1013.43 1013.43 1013.42 1013.45 1013.52 1013.64 1013.80 1013.98 1014.15
1011.26 1012.49 1013.59 1014.41 1014.83 1014.78 1014.29 1013.43 1012.34 1011.17 1010.08 1009.18 1008.54 1008.15 1007.97 1007.94 1007.97 1008.01 1008.03 1008.04 1008.06 1008.14 1008.32 1008.59 1008.97 1009.40 1009.83 1010.24 1010.59 1010.87 1011.11 1011.32 1011.55 1011.80 1012.08 1012.38 1012.66 1012.89 1013.07 1013.17 1013.23 1013.26 1013.30 1013.37 1013.48 1013.63 1013.79 1013.96 1014.09
1011.50 1012.61 1013.55 1014.22 1014.52 1014.42 1013.95 1013.18 1012.23 1011.24 1010.30 1009.52 1008.92 1008.51 1008.24 1008.07 1007.96 1007.87 1007.80 1007.76 1007.79 1007.91 1008.14 1008.46 1008.87 1009.30 1009.71 1010.08 1010.39 1010.64 1010.86 1011.07 1011.30 1011.57 1011.86 1012.15 1012.43 1012.65 1012.81 1012.92 1013.00 1013.06 1013.15 1013.27 1013.42 1013.59 1013.76 1013.90 1014.01
1011.61 1012.52 1013.26 1013.73 1013.88 1013.71 1013.25 1012.57 1011.76 1010.94 1010.17 1009.51 1008.97 1008.56 1008.23 1007.98 1007.77 1007.60 1007.49 1007.45 1007.51 1007.69 1007.98 1008.36 1008.78 1009.20 1009.58 1009.90 1010.16 1010.38 1010.57 1010.78 1011.02 1011.30 1011.60 1011.89 1012.16 1012.38 1012.54 1012.65 1012.74 1012.84 1012.96 1013.11 1013.29 1013.48 1013.65 1013.78 1013.86
1011.59 1012.26 1012.74 1012.98 1012.95 1012.67 1012.18 1011.56 1010.87 1010.19 1009.57 1009.03 1008.57 1008.19 1007.86 1007.59 1007.36 1007.19 1007.10 1007.12 1007.26 1007.52 1007.88 1008.30 1008.73 1009.13 1009.47 1009.73 1009.94 1010.11 1010.28 1010.48 1010.72 1011.01 1011.32 1011.62 1011.89 1012.10 1012.25 1012.37 1012.46 1012.57 1012.71 1012.88 1013.07 1013.27 1013.43 1013.55 1013.62
1011.47 1011.89 1012.09 1012.07 1011.83 1011.40 1010.85 1010.24 1009.62 1009.05 1008.54 1008.11 1007.75 1007.44 1007.18 1006.95 1006.78 1006.69 1006.70 1006.83 1007.09 1007.44 1007.87 1008.33 1008.75 1009.12 1009.39 1009.59 1009.73 1009.85 1009.99 1010.18 1010.43 1010.73 1011.05 1011.36 1011.62 1011.82 1011.96 1012.06 1012.15 1012.25 1012.39 1012.55 1012.74 1012.93 1013.09 1013.20 1013.26
1011.33 1011.49 1011.42 1011.13 1010.66 1010.07 1009.42 1008.78 1008.19 1007.69 1007.27 1006.95 1006.69 1006.49 1006.34 1006.23 1006.20 1006.25 1006.41 1006.68 1007.06 1007.51 1008.00 1008.46 1008.86 1009.16 1009.37 1009.48 1009.56 1009.63 1009.74 1009.91 1010.16 1010.47 1010.79 1011.09 1011.35 1011.54 1011.66 1011.74 1011.81 1011.89 1012.00 1012.15 1012.32 1012.49 1012.65 1012.76 1012.83
1011.21 1011.14 1010.82 1010.29 1009.61 1008.85 1008.10 1007.41 1006.82 1006.37 1006.03 1005.80 1005.66 1005.59 1005.58 1005.64 1005.78 1006.00 1006.32 1006.74 1007.23 1007.75 1008.26 1008.70 1009.04 1009.26 1009.37 1009.40 1009.40 1009.42 1009.50 1009.66 1009.91 1010.21 1010.53 1010.83 1011.07 1011.24 1011.34 1011.40 1011.43 1011.48 1011.57 1011.69 1011.84 1012.01 1012.16 1012.28 1012.37
1011.16 1010.91 1010.38 1009.66 1008.81 1007.93 1007.09 1006.36 1005.78 1005.35 1005.09 1004.95 1004.93 1005.00 1005.15 1005.37 1005.68 1006.07 1006.53 1007.06 1007.61 1008.15 1008.63 1009.00 1009.25 1009.36 1009.37 1009.32 1009.25 1009.23 1009.28 1009.42 1009.66 1009.95 1010.26 1010.55 1010.78 1010.93 1011.01 1011.04 1011.05 1011.08 1011.14 1011.24 1011.37 1011.53 1011.68 1011.82 1011.93
1011.19 1010.81 1010.14 1009.29 1008.35 1007.40 1006.53 1005.80 1005.24 1004.86 1004.66 1004.62 1004.70 1004.90 1005.18 1005.55 1005.99 1006.50 1007.05 1007.62 1008.16 1008.65 1009.04 1009.31 1009.43 1009.43 1009.34 1009.21 1009.09 1009.03 1009.06 1009.19 1009.41 1009.69 1009.98 1010.25 1010.45 1010.59 1010.66 1010.68 1010.68 1010.70 1010.75 1010.84 1010.97 1011.12 1011.28 1011.43 1011.57
1011.30 1010.82 1010.09 1009.19 1008.23 1007.30 1006.47 1005.80 1005.30 1005.00 1004.88 1004.92 1005.09 1005.38 1005.76 1006.21 1006.72 1007.26 1007.81 1008.34 1008.80 1009.18 1009.43 1009.55 1009.54 1009.42 1009.25 1009.06 1008.91 1008.83 1008.84 1008.96 1009.17 1009.42 1009.68 1009.92 1010.11 1010.24 1010.30 1010.34 1010.35 1010.38 1010.44 1010.54 1010.67 1010.83 1010.99 1011.15 1011.30
1011.41 1010.88 1010.14 1009.29 1008.41 1007.58 1006.87 1006.32 1005.94 1005.74 1005.70 1005.81 1006.04 1006.37 1006.78 1007.24 1007.74 1008.24 1008.71 1009.11 1009.43 1009.63 1009.71 1009.68 1009.54 1009.33 1009.09 1008.88 1008.72 1008.64 1008.66 1008.77 1008.95 1009.17 1009.39 1009.60 1009.76 1009.88 1009.97 1010.02 1010.08 1010.14 1010.23 1010.35 1010.50 1010.66 1010.82 1010.98 1011.13
1011.48 1010.94 1010.25 1009.51 1008.78 1008.14 1007.63 1007.25 1007.03 1006.95 1006.99 1007.14 1007.39 1007.71 1008.09 1008.49 1008.90 1009.28 1009.60 1009.83 1009.96 1009.97 1009.87 1009.69 1009.44 1009.16 1008.91 1008.70 1008.56 1008.51 1008.54 1008.64 1008.79 1008.96 1009.13 1009.29 1009.43 1009.55 1009.65 1009.75 1009.86 1009.98 1010.12 1010.27 1010.43 1010.59 1010.75 1010.89 1011.02
1011.46 1010.94 1010.35 1009.78 1009.28 1008.89 1008.62 1008.46 1008.41 1008.44 1008.55 1008.72 1008.94 1009.20 1009.48 1009.77 1010.03 1010.25 1010.38 1010.41 1010.34 1010.17 1009.92 1009.61 1009.30 1009.00 1008.76 1008.59 1008.50 1008.48 1008.53 1008.61 1008.72 1008.83 1008.94 1009.04 1009.14 1009.26 1009.38 1009.53 1009.70 1009.89 1010.08 1010.27 1010.44 1010.60 1010.73 1010.84 1010.94
1011.34 1010.87 1010.43 1010.08 1009.85 1009.74 1009.74 1009.81 1009.93 1010.06 1010.20 1010.34 1010.48 1010.63 1010.78 1010.91 1011.01 1011.04 1010.99 1010.85 1010.60 1010.28 1009.92 1009.54 1009.20 1008.92 1008.72 1008.61 1008.58 1008.61 1008.66 1008.72 1008.77 1008.81 1008.83 1008.86 1008.92 1009.02 1009.16 1009.35 1009.58 1009.83 1010.07 1010.29 1010.48 1010.62 1010.73 1010.80 1010.85
1011.13 1010.75 1010.50 1010.40 1010.47 1010.66 1010.92 1011.20 1011.46 1011.65 1011.77 1011.84 1011.87 1011.87 1011.86 1011.83 1011.77 1011.64 1011.44 1011.15 1010.79 1010.37 1009.95 1009.55 1009.22 1008.99 1008.86 1008.82 1008.85 1008.91 1008.96 1008.99 1008.96 1008.91 1008.84 1008.78 1008.78 1008.84 1008.99 1009.21 1009.48 1009.78 1010.06 1010.31 1010.50 1010.63 1010.70 1010.73 1010.74
1010.88 1010.64 1010.61 1010.79 1011.16 1011.63 1012.13 1012.58 1012.91 1013.11 1013.17 1013.12 1013.00 1012.84 1012.67 1012.49 1012.29 1012.05 1011.75 1011.38 1010.97 1010.52 1010.09 1009.71 1009.43 1009.26 1009.20 1009.23 1009.31 1009.38 1009.42 1009.39 1009.29 1009.13 1008.95 1008.80 1008.72 1008.73 1008.86 1009.09 1009.39 1009.71 1010.02 1010.28 1010.46 1010.57 1010.61 1010.60 1010.58
1010.66 1010.60 1010.82 1011.29 1011.94 1012.66 1013.34 1013.89 1014.25 1014.39 1014.33 1014.13 1013.84 1013.52 1013.20 1012.90 1012.61 1012.31 1011.98 1011.61 1011.21 1010.79 1010.39 1010.06 1009.84 1009.73 1009.74 1009.81 1009.92 1010.00 1010.01 1009.92 1009.72 1009.46 1009.17 1008.92 1008.75 1008.70 1008.78 1008.99 1009.28 1009.61 1009.92 1010.17 1010.34 1010.43 1010.44 1010.41 1010.36
1010.53 1010.69 1011.17 1011.91 1012.80 1013.72 1014.52 1015.12 1015.44 1015.47 1015.26 1014.89 1014.42 1013.95 1013.51 1013.13 1012.81 1012.51 1012.21 1011.88 1011.54 1011.18 1010.85 1010.59 1010.42 1010.37 1010.41 1010.51 1010.62 1010.68 1010.65 1010.50 1010.22 1009.87 1009.48 1009.12 1008.86 1008.73 1008.75 1008.91 1009.17 1009.47 1009.75 1009.98 1010.13 1010.19 1010.18 1010.14 1010.09
1010.54 1010.92 1011.64 1012.62 1013.71 1014.77 1015.64 1016.21 1016.45 1016.34 1015.96 1015.41 1014.79 1014.19 1013.67 1013.25 1012.93 1012.68 1012.45 1012.21 1011.95 1011.68 1011.42 1011.21 1011.09 1011.06 1011.12 1011.22 1011.32 1011.35 1011.28 1011.08 1010.74 1010.31 1009.84 1009.40 1009.05 1008.84 1008.78 1008.86 1009.05 1009.29 1009.53 1009.72 1009.83 1009.87 1009.84 1009.79 1009.75
1010.69 1011.28 1012.22 1013.38 1014.61 1015.74 1016.62 1017.13 1017.25 1017.00 1016.46 1015.75 1015.00 1014.30 1013.73 1013.32 1013.04 1012.85 1012.71 1012.57 1012.40 1012.20 1012.01 1011.84 1011.74 1011.71 1011.76 1011.84 1011.92 1011.93 1011.83 1011.59 1011.22 1010.75 1010.22 1009.72 1009.30 1009.00 1008.85 1008.85 1008.95 1009.11 1009.27 1009.40 1009.46 1009.47 1009.43 1009.37 1009.35
1010.97 1011.74 1012.84 1014.12 1015.42 1016.56 1017.40 1017.83 1017.83 1017.44 1016.76 1015.94 1015.10 1014.35 1013.77 1013.37 1013.15 1013.04 1012.97 1012.91 1012.81 1012.68 1012.52 1012.36 1012.26 1012.21 1012.23 1012.29 1012.34 1012.34 1012.23 1011.99 1011.61 1011.13 1010.59 1010.06 1009.58 1009.22 1008.99 1008.88 1008.88 1008.93 1009.00 1009.05 1009.05 1009.01 1008.95 1008.89 1008.87
1011.37 1012.25 1013.44 1014.77 1016.07 1017.17 1017.93 1018.27 1018.17 1017.67 1016.91 1016.02 1015.14 1014.39 1013.82 1013.45 1013.27 1013.22 1013.21 1013.20 1013.14 1013.02 1012.87 1012.71 1012.57 1012.49 1012.48 1012.50 1012.53 1012.52 1012.43 1012.21 1011.87 1011.42 1010.91 1010.37 1009.88 1009.46 1009.15 1008.95 1008.84 1008.78 1008.75 1008.70 1008.63 1008.53 1008.44 1008.36 1008.34
1011.85 1012.78 1013.98 1015.28 1016.52 1017.54 1018.21 1018.46 1018.28 1017.73 1016.94 1016.04 1015.17 1014.44 1013.90 1013.57 1013.42 1013.38 1013.39 1013.39 1013.32 1013.19 1013.01 1012.81 1012.63 1012.50 1012.45 1012.44 1012.46 1012.46 1012.39 1012.23 1011.95 1011.57 1011.11 1010.62 1010.13 1009.70 1009.33 1009.05 1008.84 1008.67 1008.52 1008.38 1008.22 1008.07 1007.92 1007.81 1007.78
1012.41 1013.32 1014.45 1015.66 1016.79 1017.70 1018.27 1018.44 1018.22 1017.67 1016.90 1016.05 1015.23 1014.54 1014.03 1013.72 1013.57 1013.52 1013.50 1013.45 1013.34 1013.16 1012.92 1012.66 1012.42 1012.24 1012.14 1012.11 1012.12 1012.14 1012.11 1012.02 1011.82 1011.53 1011.16 1010.73 1010.29 1009.87 1009.48 1009.14 1008.85 1008.59 1008.34 1008.10 1007.86 1007.63 1007.43 1007.29 1007.21
1013.02 1013.86 1014.88 1015.94 1016.93 1017.70 1018.17 1018.29 1018.07 1017.55 1016.84 1016.07 1015.32 1014.69 1014.21 1013.89 1013.71 1013.60 1013.51 1013.38 1013.18 1012.92 1012.60 1012.27 1011.97 1011.74 1011.59 1011.52 1011.52 1011.56 1011.58 1011.55 1011.45 1011.26 1010.99 1010.67 1010.30 1009.92 1009.55 1009.19 1008.85 1008.52 1008.19 1007.87 1007.56 1007.26 1007.00 1006.81 1006.69
1013.70 1014.43 1015.30 1016.19 1017.01 1017.64 1018.02 1018.09 1017.88 1017.42 1016.81 1016.12 1015.46 1014.87 1014.41 1014.06 1013.81 1013.61 1013.41 1013.17 1012.87 1012.50 1012.10 1011.70 1011.33 1011.04 1010.84 1010.74 1010.72 1010.76 1010.81 1010.84 1010.82 1010.74 1010.59 1010.37 1010.11 1009.81 1009.48 1009.14 1008.79 1008.42 1008.05 1007.67 1007.29 1006.94 1006.63 1006.38 1006.21
Thickness
5850 5848 5844 5832 5813 5797 5793 5814 5831 5837 5850 5863 5871 5866 5855 5846 5835 5825 5850 5854 5848 5841 5836 5833 5830 5827 5823 5820 5817 5814 5811 5808 5805 5803 5800 5798 5796 5794 5792 5789 5787 5785 5783 5780 5778 5775 5773 5770 5766
5852 5848 5837 5821 5803 5783 5791 5818 5824 5827 5844 5863 5868 5864 5855 5848 5853 5849 5850 5851 5849 5843 5837 5834 5831 5827 5824 5820 5817 5814 5811 5807 5804 5802 5799 5797 5795 5792 5791 5788 5786 5784 5782 5779 5777 5774 5772 5770 5767
5852 5848 5826 5811 5799 5788 5797 5822 5826 5836 5849 5859 5858 5861 5855 5848 5852 5851 5853 5852 5847 5841 5837 5834 5831 5827 5823 5820 5817 5813 5810 5807 5803 5801 5798 5796 5793 5791 5789 5787 5785 5783 5780 5778 5776 5773 5771 5769 5767
5848 5833 5821 5803 5797 5807 5815 5827 5833 5832 5840 5852 5853 5848 5856 5865 5862 5857 5854 5850 5844 5840 5837 5834 5831 5827 5823 5819 5816 5812 5809 5805 5802 5799 5796 5793 5791 5788 5786 5784 5782 5780 5778 5776 5774 5772 5770 5768 5766
5842 5822 5805 5794 5802 5819 5825 5831 5835 5823 5824 5838 5845 5838 5845 5864 5868 5860 5853 5848 5844 5839 5836 5833 5830 5826 5822 5818 5815 5811 5807 5804 5800 5797 5793 5790 5788 5785 5783 5781 5779 5777 5776 5774 5772 5770 5768 5766 5764
5826 5815 5794 5788 5805 5822 5828 5835 5833 5821 5819 5831 5837 5835 5842 5860 5860 5855 5854 5849 5846 5841 5836 5832 5828 5825 5821 5817 5814 5810 5806 5802 5798 5795 5791 5788 5785 5782 5780 5778 5776 5774 5773 5771 5770 5768 5767 5765 5763
5818 5808 5796 5801 5806 5816 5827 5836 5832 5826 5822 5833 5841 5830 5839 5852 5859 5857 5854 5850 5845 5841 5836 5832 5828 5824 5819 5815 5812 5808 5804 5800 5796 5792 5789 5785 5783 5780 5777 5775 5773 5772 5770 5769 5768 5767 5765 5764 5762
5830 5810 5801 5801 5806 5815 5835 5838 5843 5839 5834 5849 5849 5832 5833 5852 5861 5857 5851 5846 5842 5838 5835 5831 5827 5822 5817 5813 5809 5805 5801 5797 5792 5788 5785 5782 5779 5777 5774 5772 5770 5769 5767 5766 5765 5764 5763 5762 5760
5837 5801 5790 5801 5810 5822 5835 5833 5842 5850 5845 5845 5850 5852 5860 5865 5862 5853 5846 5839 5836 5834 5831 5829 5824 5819 5814 5809 5805 5802 5797 5793 5789 5785 5782 5778 5775 5773 5770 5768 5766 5765 5764 5763 5762 5761 5760 5759 5757
5817 5791 5804 5823 5830 5832 5837 5838 5841 5838 5832 5833 5842 5856 5867 5865 5859 5851 5847 5840 5833 5831 5828 5825 5821 5816 5811 5806 5802 5798 5794 5789 5785 5781 5778 5774 5771 5768 5766 5764 5762 5761 5761 5760 5759 5758 5757 5755 5754
5818 5806 5822 5833 5841 5842 5840 5844 5849 5836 5824 5836 5842 5851 5859 5859 5855 5851 5850 5847 5840 5832 5826 5820 5816 5812 5807 5803 5799 5794 5789 5785 5781 5777 5774 5770 5766 5763 5762 5761 5760 5759 5759 5758 5757 5756 5753 5752 5750
5816 5821 5830 5836 5844 5842 5841 5845 5845 5842 5848 5861 5862 5861 5858 5855 5853 5852 5846 5843 5838 5829 5821 5815 5810 5806 5802 5799 5795 5789 5785 5781 5777 5774 5770 5765 5762 5760 5759 5759 5757 5757 5758 5757 5754 5753 5751 5749 5747
5814 5820 5832 5839 5840 5842 5845 5841 5844 5850 5866 5866 5859 5853 5852 5852 5850 5846 5840 5830 5824 5818 5813 5806 5799 5796 5795 5792 5789 5784 5781 5777 5774 5771 5767 5763 5759 5756 5757 5756 5754 5754 5755 5754 5752 5750 5748 5746 5744
5811 5816 5824 5834 5837 5842 5837 5837 5839 5849 5860 5854 5848 5843 5843 5838 5831 5826 5819 5810 5803 5795 5792 5791 5783 5780 5781 5781 5781 5780 5776 5773 5771 5768 5765 5761 5757 5754 5753 5751 5750 5750 5750 5750 5749 5747 5745 5743 5742
5812 5803 5809 5823 5829 5834 5829 5817 5833 5849 5849 5840 5836 5832 5823 5813 5809 5800 5795 5790 5784 5777 5773 5769 5767 5765 5767 5770 5772 5772 5770 5767 5764 5764 5762 5758 5754 5752 5749 5747 5747 5747 5748 5748 5746 5745 5742 5740 5739
5795 5786 5780 5810 5823 5827 5812 5793 5829 5840 5835 5825 5823 5817 5801 5791 5788 5786 5784 5782 5778 5768 5763 5754 5754 5751 5753 5755 5760 5763 5763 5761 5758 5757 5756 5753 5751 5748 5746 5744 5743 5744 5743 5743 5742 5741 5739 5737 5736
5771 5762 5770 5796 5821 5820 5807 5790 5809 5822 5821 5810 5805 5796 5783 5777 5775 5774 5775 5774 5769 5765 5760 5751 5747 5741 5743 5748 5751 5754 5756 5755 5753 5751 5749 5748 5746 5744 5742 5740 5739 5739 5737 5737 5737 5736 5735 5733 5733
5755 5763 5772 5783 5807 5809 5792 5780 5786 5794 5794 5785 5782 5776 5769 5764 5761 5762 5763 5763 5764 5760 5757 5754 5748 5738 5738 5739 5737 5741 5744 5747 5747 5747 5745 5743 5741 5739 5738 5736 5735 5734 5731 5730 5731 5730 5731 5731 5731
5776 5774 5772 5787 5807 5792 5772 5761 5761 5770 5771 5766 5762 5758 5755 5752 5754 5756 5756 5755 5756 5755 5751 5746 5740 5735 5727 5724 5724 5729 5733 5738 5740 5742 5741 5739 5737 5735 5734 5732 5731 5729 5726 5725 5726 5726 5726 5727 5729
5779 5771 5771 5783 5800 5787 5762 5750 5750 5756 5754 5752 5748 5744 5741 5741 5744 5748 5749 5750 5747 5745 5739 5735 5730 5727 5725 5723 5725 5727 5730 5733 5736 5737 5735 5734 5732 5731 5730 5728 5726 5725 5723 5722 5722 5722 5721 5722 5726
5774 5771 5771 5773 5782 5780 5767 5740 5737 5741 5746 5746 5742 5736 5732 5732 5734 5738 5740 5738 5737 5734 5729 5726 5721 5718 5720 5722 5723 5724 5724 5724 5724 5725 5726 5727 5728 5727 5727 5725 5723 5721 5719 5717 5718 5719 5717 5716 5720
5763 5782 5782 5777 5761 5745 5754 5720 5719 5724 5727 5728 5728 5725 5722 5721 5724 5727 5730 5728 5726 5722 5718 5715 5711 5710 5710 5711 5713 5714 5712 5709 5712 5715 5719 5720 5721 5722 5722 5722 5720 5718 5716 5714 5715 5715 5714 5714 5713
5776 5786 5778 5769 5754 5739 5737 5717 5707 5716 5710 5710 5713 5714 5714 5712 5714 5716 5717 5716 5714 5710 5706 5703 5701 5701 5700 5700 5700 5700 5700 5701 5703 5705 5709 5711 5713 5715 5716 5716 5715 5713 5711 5710 5710 5710 5710 5710 5710
5788 5774 5760 5744 5731 5716 5721 5710 5697 5701 5701 5703 5706 5707 5706 5704 5705 5706 5706 5704 5701 5698 5694 5692 5690 5689 5688 5688 5688 5687 5687 5688 5690 5692 5695 5699 5703 5707 5709 5710 5710 5709 5707 5705 5705 5705 5705 5706 5707
5775 5740 5713 5710 5698 5700 5713 5703 5694 5702 5706 5706 5704 5702 5701 5700 5697 5696 5694 5691 5687 5685 5682 5680 5678 5677 5676 5676 5676 5675 5675 5675 5676 5677 5680 5684 5688 5693 5697 5702 5703 5703 5702 5701 5700 5699 5699 5701 5702
5764 5742 5709 5696 5693 5694 5704 5694 5693 5702 5704 5705 5703 5699 5696 5692 5688 5686 5683 5680 5678 5675 5672 5669 5667 5664 5663 5662 5661 5661 5661 5661 5662 5664 5666 5670 5673 5678 5684 5690 5694 5696 5696 5696 5695 5693 5694 5695 5696
5757 5744 5740 5714 5709 5691 5689 5689 5690 5696 5696 5695 5692 5688 5683 5680 5677 5673 5670 5666 5663 5661 5659 5657 5655 5652 5650 5649 5647 5646 5645 5645 5646 5649 5651 5654 5658 5663 5668 5674 5680 5684 5686 5687 5687 5686 5687 5689 5691
5762 5750 5728 5708 5693 5682 5684 5682 5680 5684 5685 5685 5681 5677 5674 5672 5669 5665 5661 5657 5653 5649 5644 5640 5638 5636 5635 5634 5632 5631 5629 5628 5629 5630 5633 5637 5641 5645 5650 5655 5661 5667 5672 5676 5677 5679 5681 5682 5684
5749 5742 5726 5707 5697 5680 5671 5676 5693 5687 5683 5678 5674 5671 5668 5665 5662 5658 5654 5650 5643 5636 5628 5621 5617 5614 5612 5612 5612 5610 5609 5610 5610 5610 5613 5616 5621 5626 5631 5635 5641 5647 5654 5661 5665 5670 5674 5675 5678
5746 5735 5722 5699 5691 5683 5668 5669 5693 5683 5677 5671 5666 5663 5659 5655 5651 5646 5641 5635 5628 5620 5612 5605 5598 5593 5590 5589 5588 5587 5586 5586 5587 5589 5592 5596 5600 5605 5610 5616 5622 5628 5635 5642 5649 5656 5663 5667 5670